#timestamp,LO_Frequency,Hit,StdDev 
1663509615.3,286046998.9,N
1663509635.1,286046998.5,N
1663509655.8,286047001.0,N
1663509675.7,286046999.9,N
1663509695.5,286047001.1,N
1663509715.4,286047002.8,N
1663509735.2,286047002.0,N
1663509755.0,286047000.2,N
1663509755.9,286047000.2,N
1663509775.8,286047000.3,N
1663509795.6,286047002.6,N
1663509815.4,286047002.3,N
1663509835.3,286047002.6,N
1663509855.1,286047001.6,N
1663509875.9,286047001.9,N
1663509895.7,286047001.9,N
1663509915.5,286047000.5,N
1663509935.4,286047000.4,N
1663509955.2,286046999.7,N
1663509975.1,286047002.4,N
1663509976.0,286047002.4,N
1663509995.8,286046999.7,N
1663510015.6,286047001.3,N
1663510035.5,286047003.9,N
1663510055.3,286047001.9,N
1663510075.1,286047002.2,N
1663510095.9,286047004.3,Y
1663510115.7,286046999.8,P
1663510135.6,286046999.9,N
1663510155.4,286047002.3,P
1663510175.2,286047001.9,N
1663510195.1,286047000.3,N
1663510196.0,286047000.3,N
1663510215.8,286047002.4,N
1663510235.6,286047002.2,N
1663510255.5,286047000.1,N
1663510275.3,286047000.0,N
1663510295.2,286047000.2,N
1663510315.0,286047002.5,N
1663510315.9,286047002.5,N
1663510335.7,286047001.5,N
1663510355.6,286047004.2,Y
1663510375.4,286047002.0,P
1663510395.3,286047002.1,P
1663510415.1,286047001.8,P
1663510416.0,286047001.8,Y
1663510435.8,286047002.4,P
1663510455.7,286047002.1,P
1663510475.5,286047002.2,P
1663510495.4,286047001.9,Y
1663510515.2,286046998.5,P
1663510535.0,286046999.0,N
1663510536.0,286046999.0,N
1663510555.8,286046998.6,N
1663510575.6,286046998.5,N
1663510595.5,286046998.8,N
1663510615.3,286046998.5,N
1663510635.1,286046998.5,N
1663510655.9,286046998.2,N
1663510675.7,286046996.9,N
1663510695.5,286046999.6,N
1663510715.4,286046996.9,N
1663510735.2,286046996.5,N
1663510755.1,286046996.8,N
1663510756.0,286046996.8,N
1663510775.8,286046999.1,N
1663510795.6,286046999.5,N
1663510815.5,286046998.7,N
1663510835.3,286046998.3,N
1663510855.2,286046998.4,N
1663510875.9,286046998.7,N
1663510895.7,286046998.9,N
1663510915.6,286046998.6,N
1663510935.4,286046998.7,N
1663510955.2,286046998.1,N
1663510975.1,286046998.7,N
1663510976.0,286046998.7,N
1663510995.8,286047001.0,N
1663511015.7,286047000.3,N
1663511035.5,286047000.7,N
1663511055.3,286047001.1,N
1663511075.2,286047000.5,N
1663511095.9,286047000.7,N
1663511115.7,286047001.0,N
1663511135.6,286047000.2,N
1663511155.4,286046999.8,N
1663511175.3,286047000.0,N
1663511195.1,286047002.2,N
1663511196.0,286047002.2,N
1663511215.8,286046999.7,N
1663511235.7,286047002.3,N
1663511255.5,286047000.0,N
1663511275.3,286047001.1,N
1663511295.2,286047000.0,N
1663511315.0,286047000.1,N
1663511315.9,286047000.1,N
1663511335.8,286047002.3,N
1663511355.6,286047004.0,Y
1663511375.4,286047003.9,P
1663511395.3,286047003.8,N
1663511415.1,286047001.5,N
1663511435.8,286046999.8,N
1663511455.7,286046999.7,N
1663511475.5,286047000.4,N
1663511495.4,286046999.9,N
1663511515.2,286047002.7,N
1663511535.0,286047000.3,N
1663511535.9,286047000.3,N
1663511555.8,286047002.5,N
1663511575.6,286047002.8,N
1663511595.5,286047002.7,N
1663511615.3,286047001.6,N
1663511635.1,286047002.7,N
1663511655.9,286047002.8,N
1663511675.7,286047002.6,N
1663511695.6,286047002.0,N
1663511715.4,286047001.4,N
1663511735.2,286047001.5,N
1663511755.1,286047002.6,N
1663511756.0,286047002.6,N
1663511775.8,286047000.0,N
1663511795.6,286047000.0,N
1663511815.5,286047002.2,N
1663511835.3,286047000.0,N
1663511855.2,286047000.1,N
1663511875.9,286046999.7,N
1663511895.7,286047002.8,N
1663511915.6,286047002.3,N
1663511935.4,286047002.0,N
1663511955.2,286047002.0,N
1663511975.1,286047001.6,N
1663511976.0,286047001.6,N
1663511995.8,286047001.8,N
1663512015.7,286047001.6,N
1663512035.5,286047003.8,Y
1663512055.3,286047001.8,P
1663512075.2,286047002.3,P
1663512095.0,286046999.9,N
1663512095.9,286046999.9,N
1663512115.8,286047002.2,N
1663512135.6,286047002.7,N
1663512155.4,286047002.3,N
1663512175.3,286047002.1,N
1663512195.1,286047002.0,N
1663512196.0,286047002.0,N
1663512215.8,286047002.5,N
1663512235.7,286047001.6,N
1663512255.5,286047002.5,N
1663512275.3,286047002.5,N
1663512295.2,286047000.9,N
1663512315.0,286047000.3,N
1663512315.9,286047000.3,N
1663512335.8,286046999.9,N
1663512355.6,286047002.1,N
1663512375.4,286046999.7,N
1663512395.3,286047002.1,N
1663512415.1,286047001.6,N
1663512435.9,286047002.4,N
1663512455.7,286047002.4,N
1663512475.5,286047002.5,N
1663512495.4,286047001.3,N
1663512515.2,286047002.5,N
1663512535.1,286047002.6,N
1663512536.0,286047002.6,N
1663512555.8,286047002.4,N
1663512575.6,286046996.5,Y
1663512595.5,286046995.9,P
1663512615.3,286046997.0,N
1663512635.1,286046996.7,N
1663512655.9,286046997.8,N
1663512675.7,286046999.0,N
1663512695.6,286047001.2,N
1663512715.4,286047001.2,N
1663512735.3,286047000.6,N
1663512755.1,286047001.2,N
1663512756.0,286047001.2,N
1663512775.8,286046999.3,N
1663512795.7,286046999.3,N
1663512815.5,286046998.6,N
1663512835.3,286046998.2,N
1663512855.2,286046997.0,N
1663512875.0,286046997.0,N
1663512875.9,286046997.0,N
1663512895.8,286046999.2,N
1663512915.6,286046998.7,N
1663512935.4,286046999.6,N
1663512955.3,286046999.1,N
1663512975.1,286046999.3,N
1663512995.8,286047000.3,N
1663513015.7,286047000.9,N
1663513035.5,286047000.5,N
1663513055.4,286046998.5,N
1663513075.2,286046998.6,N
1663513095.0,286046999.0,N
1663513095.9,286046999.0,N
1663513115.8,286046998.9,N
1663513135.6,286046998.5,N
1663513155.5,286046998.6,N
1663513175.3,286047000.0,N
1663513195.1,286046999.7,N
